Middlebury State AP, Middlebu, VT

5:17 PM EST on December 05, 2019 (GMT -0500)
Middlebury State AP, Middlebu

Weather History for K6B0 - October, 2019

Change the Weather History Date:

Sunday, October 20, 2019

  Actual Average (KRUT) Record (KRUT)
Temperature  
Mean Temperature 42 °F -  
Max Temperature 54 °F 55 °F 82 °F (1965)
Min Temperature 31 °F 35 °F 17 °F (1972)
Degree Days  
Heating Degree Days 22    
Moisture  
Dew Point 38 °F    
Average Humidity 87    
Maximum Humidity 100    
Minimum Humidity 57    
Precipitation  
Precipitation 0.00 in - - ()
Sea Level Pressure  
Sea Level Pressure 30.03 in    
Wind  
Wind Speed 1 mph ()    
Max Wind Speed 6 mph    
Max Gust Speed -    
Visibility 9.6 miles    
Events Rain    
Averages and records for this station are not official NWS values.
T = Trace of Precipitation, MM = Missing Value Source: Averaged Metar Reports

Daily Weather History Graph

Daily Weather History Graph

Search for Another Location

Airport or City:

Astronomy

Oct. 20, 2019 Rise Set
Actual Time 7:12 AM EDT 6:00 PM EDT
Civil Twilight 6:43 AM EDT 6:30 PM EDT
Nautical Twilight 6:10 AM EDT 7:03 PM EDT
Astronomical Twilight 5:36 AM EDT 7:36 PM EDT
Moon 10:58 PM EDT (10/20) 1:46 PM EDT (10/20)
Length of Visible Light 11h 46m
Length of Day
10h 47m
Waning Gibbous, 59% of the Moon is Illuminated
Oct 20
Waning Gibbous
Oct 21
Last Quarter
Oct 27
New
Nov 4
First Quarter
Nov 12
Full

Hourly Weather History & Observations

Time (EDT) Temp. Dew Point Humidity Pressure Visibility Wind Dir Wind Speed Gust Speed Precip Events Conditions
12:15 AM 34.2 °F 33.4 °F 97% 30.05 in 10.0 mi Calm Calm - N/A   Clear
12:35 AM 33.8 °F 33.3 °F 98% 30.05 in 10.0 mi Calm Calm - N/A   Clear
12:58 AM 33.8 °F 33.1 °F 97% 30.05 in 10.0 mi Calm Calm - N/A   Clear
1:17 AM 33.3 °F 32.7 °F 98% 30.04 in 5.0 mi Calm Calm - N/A   Clear
1:35 AM 32.9 °F 32.4 °F 98% 30.03 in 7.0 mi Calm Calm - N/A   Clear
1:36 AM 32.7 °F 32.2 °F 98% 30.03 in 7.0 mi Calm Calm - N/A   Clear
1:55 AM 32.2 °F 32.0 °F 99% 30.04 in 10.0 mi Calm Calm - N/A   Clear
1:56 AM 32.2 °F 32.0 °F 99% 30.04 in 10.0 mi Calm Calm - N/A   Clear
2:15 AM 32.2 °F 32.0 °F 99% 30.04 in 7.0 mi Calm Calm - N/A   Clear
2:37 AM 32.0 °F 31.8 °F 99% 30.04 in 10.0 mi Calm Calm - N/A   Clear
2:55 AM 32.5 °F 32.0 °F 98% 30.04 in 10.0 mi Calm Calm - N/A   Clear
3:15 AM 32.0 °F 31.8 °F 99% 30.05 in 10.0 mi Calm Calm - N/A   Clear
3:16 AM 32.0 °F 31.8 °F 99% 30.05 in 10.0 mi Calm Calm - N/A   Clear
3:36 AM 32.2 °F 32.0 °F 99% 30.05 in 10.0 mi Calm Calm - N/A   Clear
3:59 AM 32.0 °F 31.8 °F 99% 30.04 in 10.0 mi Calm Calm - N/A   Clear
4:17 AM 31.6 °F 31.1 °F 98% 30.03 in 10.0 mi Calm Calm - N/A   Clear
4:36 AM 32.0 °F 31.8 °F 99% 30.03 in 10.0 mi Calm Calm - N/A   Clear
4:55 AM 32.2 °F 32.0 °F 99% 30.03 in 10.0 mi Calm Calm - N/A   Clear
4:56 AM 32.2 °F 32.0 °F 99% 30.03 in 10.0 mi Calm Calm - N/A   Clear
5:15 AM 32.0 °F 31.8 °F 99% 30.03 in 10.0 mi Calm Calm - N/A   Clear
5:20 AM 32.0 °F 31.8 °F 99% 30.02 in 10.0 mi Calm Calm - N/A   Clear
5:37 AM 31.1 °F 30.7 °F 99% 30.02 in 10.0 mi Calm Calm - N/A   Clear
5:56 AM 31.5 °F 31.1 °F 99% 30.02 in 10.0 mi Calm Calm - N/A   Clear
6:15 AM 32.0 °F 31.6 °F 99% 30.02 in 10.0 mi Calm Calm - N/A   Clear
6:16 AM 32.0 °F 31.8 °F 99% 30.03 in 10.0 mi Calm Calm - N/A   Clear
6:35 AM 32.0 °F 31.6 °F 99% 30.03 in 10.0 mi Calm Calm - N/A   Clear
6:36 AM 32.0 °F 31.8 °F 99% 30.03 in 10.0 mi Calm Calm - N/A   Clear
6:59 AM 32.2 °F 32.0 °F 99% 30.02 in 10.0 mi Calm Calm - N/A   Clear
7:16 AM 32.0 °F 32.0 °F 100% 30.02 in 10.0 mi Calm Calm - N/A   Clear
7:36 AM 31.6 °F 31.1 °F 98% 30.02 in 10.0 mi Calm Calm - N/A   Clear
7:55 AM 32.0 °F 32.0 °F 100% 30.03 in 10.0 mi Calm Calm - N/A   Clear
7:56 AM 32.0 °F 32.0 °F 100% 30.03 in 10.0 mi Calm Calm - N/A   Clear
8:15 AM 33.1 °F 32.7 °F 99% 30.04 in 10.0 mi Calm Calm - N/A   Clear
8:19 AM 33.1 °F 32.5 °F 98% 30.04 in 10.0 mi Calm Calm - N/A   Clear
8:37 AM 34.9 °F 34.3 °F 98% 30.03 in 10.0 mi Calm Calm - N/A   Clear
8:55 AM 36.1 °F 35.8 °F 99% 30.04 in 10.0 mi Calm Calm - N/A   Clear
9:16 AM 39.4 °F 37.0 °F 91% 30.03 in 10.0 mi Calm Calm - N/A   Clear
9:35 AM 41.2 °F 38.3 °F 89% 30.04 in 10.0 mi Calm Calm - N/A   Clear
9:36 AM 41.4 °F 38.5 °F 89% 30.04 in 10.0 mi Calm Calm - N/A   Clear
9:58 AM 43.3 °F 38.7 °F 84% 30.03 in 10.0 mi Calm Calm - N/A   Clear
10:16 AM 44.1 °F 39.7 °F 85% 30.03 in 10.0 mi Calm Calm - N/A   Clear
10:36 AM 46.4 °F 40.3 °F 79% 30.04 in 10.0 mi Calm Calm - N/A   Clear
10:56 AM 47.3 °F 39.6 °F 74% 30.04 in 10.0 mi Calm Calm - N/A   Clear
11:15 AM 48.7 °F 40.1 °F 72% 30.04 in 10.0 mi Calm Calm - N/A   Clear
11:38 AM 49.1 °F 40.1 °F 71% 30.04 in 10.0 mi Calm Calm - N/A   Clear
11:55 AM 51.1 °F 40.5 °F 67% 30.04 in 10.0 mi SSW 3.5 mph - N/A   Clear
12:15 PM 51.6 °F 40.3 °F 65% 30.04 in 10.0 mi Calm Calm - N/A   Clear
12:16 PM 51.6 °F 40.5 °F 66% 30.04 in 10.0 mi SW 3.5 mph - N/A   Clear
12:35 PM 52.2 °F 40.3 °F 64% 30.03 in 10.0 mi Calm Calm - N/A   Clear
12:36 PM 52.3 °F 40.6 °F 64% 30.03 in 10.0 mi Calm Calm - N/A   Clear
12:58 PM 53.4 °F 39.6 °F 59% 30.02 in 10.0 mi SSW 3.5 mph - N/A   Clear
1:17 PM 53.6 °F 40.5 °F 61% 30.02 in 10.0 mi South 3.5 mph - N/A   Clear
1:36 PM 54.3 °F 39.6 °F 57% 30.02 in 10.0 mi SW 4.6 mph - N/A   Clear
1:55 PM 53.8 °F 39.2 °F 58% 30.02 in 10.0 mi SSW 3.5 mph - N/A   Clear
1:56 PM 53.8 °F 39.4 °F 58% 30.02 in 10.0 mi SSW 3.5 mph - N/A   Clear
2:15 PM 53.6 °F 41.9 °F 65% 30.02 in 10.0 mi South 3.5 mph - N/A   Clear
2:20 PM 53.8 °F 43.0 °F 67% 30.02 in 10.0 mi Calm Calm - N/A   Clear
2:38 PM 54.0 °F 41.9 °F 64% 30.02 in 10.0 mi South 4.6 mph - N/A   Clear
2:56 PM 53.8 °F 40.1 °F 60% 30.01 in 10.0 mi SSE 3.5 mph - N/A   Scattered Clouds
3:15 PM 53.4 °F 40.6 °F 62% 30.01 in 10.0 mi Calm Calm - N/A   Mostly Cloudy
3:35 PM 52.0 °F 44.1 °F 74% 30.00 in 10.0 mi Calm Calm - N/A   Overcast
3:36 PM 52.0 °F 43.7 °F 73% 30.00 in 10.0 mi Calm Calm - N/A   Overcast
3:58 PM 50.5 °F 46.6 °F 86% 30.01 in 10.0 mi Calm Calm - N/A   Overcast
4:15 PM 50.0 °F 46.4 °F 87% 30.01 in 10.0 mi Calm Calm - N/A   Overcast
4:35 PM 50.0 °F 46.0 °F 86% 30.01 in 10.0 mi Calm Calm - N/A Rain Light Rain
4:36 PM 50.0 °F 46.2 °F 87% 30.01 in 10.0 mi Calm Calm - N/A Rain Light Rain
4:55 PM 50.4 °F 43.9 °F 78% 30.02 in 10.0 mi SSE 3.5 mph - N/A   Light Drizzle
4:56 PM 50.5 °F 43.7 °F 77% 30.02 in 10.0 mi SSE 4.6 mph - N/A   Light Drizzle
5:18 PM 50.5 °F 43.2 °F 76% 30.03 in 10.0 mi South 3.5 mph - N/A Rain Light Rain
5:36 PM 49.8 °F 43.0 °F 77% 30.04 in 10.0 mi South 4.6 mph - N/A Rain Rain
5:56 PM 48.9 °F 43.2 °F 80% 30.04 in 10.0 mi SE 3.5 mph - N/A   Light Drizzle
6:15 PM 48.6 °F 43.2 °F 82% 30.04 in 10.0 mi South 4.6 mph - N/A   Overcast
6:16 PM 48.6 °F 43.2 °F 82% 30.04 in 10.0 mi SSE 4.6 mph - N/A   Overcast
6:35 PM 48.2 °F 43.2 °F 83% 30.03 in 10.0 mi SSE 4.6 mph - N/A   Overcast
6:39 PM 48.2 °F 43.2 °F 83% 30.02 in 10.0 mi SSE 4.6 mph - N/A   Overcast
6:57 PM 49.5 °F 43.3 °F 79% 30.02 in 10.0 mi South 5.8 mph - N/A   Overcast
7:16 PM 48.7 °F 43.2 °F 81% 30.02 in 10.0 mi South 3.5 mph - N/A   Overcast
7:35 PM 46.6 °F 43.7 °F 90% 30.03 in 10.0 mi Calm Calm - N/A   Mostly Cloudy
7:55 PM 45.7 °F 43.7 °F 93% 30.02 in 10.0 mi Calm Calm - N/A   Mostly Cloudy
8:18 PM 46.6 °F 44.2 °F 92% 30.02 in 10.0 mi South 4.6 mph - N/A   Overcast
8:36 PM 47.1 °F 43.9 °F 88% 30.03 in 10.0 mi SSE 3.5 mph - N/A   Overcast
8:56 PM 47.3 °F 44.4 °F 90% 30.03 in 10.0 mi Calm Calm - N/A   Overcast
9:15 PM 46.9 °F 44.1 °F 90% 30.03 in 10.0 mi Calm Calm - N/A   Overcast
9:16 PM 46.9 °F 44.1 °F 90% 30.03 in 10.0 mi Calm Calm - N/A   Overcast
9:35 PM 46.6 °F 44.1 °F 91% 30.03 in 10.0 mi Calm Calm - N/A   Mostly Cloudy
9:39 PM 46.0 °F 43.9 °F 92% 30.03 in 10.0 mi Calm Calm - N/A   Scattered Clouds
9:57 PM 45.1 °F 43.5 °F 94% 30.03 in 10.0 mi Calm Calm - N/A   Clear
10:16 PM 44.8 °F 43.2 °F 94% 30.03 in 10.0 mi Calm Calm - N/A   Clear
10:35 PM 43.7 °F 42.3 °F 95% 30.04 in 10.0 mi Calm Calm - N/A   Clear
10:36 PM 43.3 °F 41.9 °F 95% 30.04 in 10.0 mi Calm Calm - N/A   Clear
10:55 PM 43.5 °F 42.6 °F 97% 30.04 in 10.0 mi Calm Calm - N/A   Clear
10:56 PM 43.5 °F 42.6 °F 97% 30.04 in 10.0 mi Calm Calm - N/A   Clear
11:18 PM 42.8 °F 42.1 °F 97% 30.04 in 5.0 mi Calm Calm - N/A   Clear
11:37 PM 41.7 °F 41.2 °F 98% 30.04 in 1.0 mi Calm Calm - N/A   Mist
11:55 PM 41.0 °F 40.3 °F 97% 30.04 in 2.5 mi Calm Calm - N/A   Clear